Weather in Malakhovo

Russia / Tula Oblast     54°45′04″N   37°26′41″E
temp.,
°C
wind,
m/s
gust,
m/s
humid.,
%
clouds,
%
prec.,
mm/h
press.,
hPa
HPBL,
m
29 june, wed
wed2900:00+13e39666 0.0 1022161
03:00+10ene22750 0.0 102319
06:00+12ene25784 0.0 1023134
09:00+17ene34580 0.0 1023640
12:00+20e33490 0.0 10221574
15:00+20se23490 0.0 10211585
18:00+21se11520 0.0 10201162
21:00+15ese11710 0.0 102011
30 june, thu
thu3000:00+13nne11780 0.0 102010
03:00+11n018044 0.0 102010
06:00+13n127695 0.0 102058
09:00+18n23580 0.0 1019507
12:00+21nnw344516 0.0 10191769
15:00+23n464197 0.0 10182142
18:00+21n3655100 0.0 1017293
21:00+16n337185 0.0 101842
1 july, fri
fri100:00+14n35750 0.0 101874
03:00+12nnw34830 0.0 101959
06:00+13nne38840 0.0 1020253
09:00+17ne47565 0.0 1021836
12:00+19ne57460 0.0 10211591
15:00+20ne57425 0.0 10211863
18:00+20ne36524 0.0 1021672
21:00+14ene22675 0.0 102211
2 july, sat
sat200:00+11ene11735 0.0 102310
03:00+10nw11755 0.0 102310
06:00+12nw23785 0.0 102385
09:00+18nnw35565 0.0 1023550
12:00+22nw24445 0.0 10211202
15:00+25wnw354337 0.0 10191620
18:00+24wnw36595 0.0 1018337
21:00+19wnw4970100 0.0 1018150
3 july, sun
sun300:00+16nw3686100 0.3 1018116
03:00+16nw3794100 2.1 1017127
06:00+17nw369178 0.4 1017148
09:00+22nnw3477100 0.6 1017354
12:00+24nnw5768100 0.0 1017862
15:00+20nne3572100 0.1 101793
18:00+20wsw127697 0.1 1016118
21:00+17w338866 0.3 101743